BRO-1 (44495 NORAD) Tracking and Keplerian Element Data

This shows tracking and keplerian element data for the satellite.

Feedback or suggestion? Click here.




ElementValue
Catalog44495
NameBRO-1
Epoch Orbit420
Epoch Day259.16771271
Epoch Year2019
RAAN308.8537
Inclination45.0215
Eccentricity0.0011012
Argument of Perigee57.8573
Mean Anonmoly38.0588
Mean Motion15.08376405
Decay Rate-1.5E-07
L11 44495U 19054A 19259.16771271 -.00000015 00000-0 14801-4 0 9998
L22 44495 45.0215 308.8537 0011012 57.8573 38.0588 15.08376405 4206

Live tracking and technical data element details for BRO-1 (NORAD 44495). BRO-1 can be tracked NOW for your location showing map with azimuth and elevation plus other details from your city location.

Track the satellite on the map from your city or location and see movement details for azimuth, elevation, latitude, longitude, range, height, and movement on the map or in text.







IsCatalogInMostPopularTable: catalog: 44495, numindb: 8
Update: records affected: 1



GetName: 44495 BRO-1

Hit Count: updated at: Thu, 19 Sep 2019 16:54:37 GMT